GFSGBSN_prec_cthk_129.txt.gz
RH
93 91 90 87 86 86 82 77 75 70 65 61 55 53 50 47 43 40 38 37 35 32 26 24 22 20 19 21 21 20 18 19 17 14 13 13 12 12 12 12 11 10 10 11 11 10 10
89 96 95 93 93 94 89 87 81 77 71 68 63 58 57 55 54 45 41 40 37 34 30 28 26 23 24 28 22 19 18 16 13 12 12 12 13 12 9 10 10 8 8 8 6 5 5
81 83 87 89 92 95 90 88 86 80 72 69 68 63 57 59 54 51 47 41 38 35 35 33 33 31 29 26 27 22 20 17 13 14 12 13 12 10 9 10 11 11 12 9 8 8 8
74 74 78 84 87 82 87 82 72 68 63 58 61 67 65 61 58 58 53 45 40 37 38 43 44 39 33 32 29 25 22 17 15 15 12 11 11 11 12 13 14 13 13 15 11 10 11
68 75 76 79 77 78 78 72 67 64 64 62 60 64 68 66 61 57 53 46 42 48 53 57 52 45 40 36 30 24 18 17 15 13 13 12 12 14 17 17 17 18 20 18 16 14 16
76 81 70 76 82 78 74 76 67 66 65 63 65 71 70 68 69 62 52 49 48 56 53 52 45 42 38 33 31 25 22 19 17 13 13 14 15 17 18 20 26 24 24 21 20 16 17
47 61 82 68 77 81 83 73 74 67 66 66 76 73 77 77 79 74 68 50 51 45 44 43 41 37 35 33 30 26 20 18 16 14 15 15 18 21 20 20 21 23 23 22 15 15 17
35 44 58 94 67 79 84 79 75 74 71 69 69 73 85 87 76 66 52 54 51 49 50 46 40 36 32 27 24 21 20 18 17 18 17 18 23 22 21 22 22 22 22 19 15 17 21
34 37 44 65 63 72 77 80 80 77 74 71 69 84 93 84 72 63 60 49 41 40 41 41 37 36 30 27 24 22 21 20 19 19 19 20 23 24 22 21 21 21 21 21 26 18 17
36 34 41 43 41 76 74 88 89 87 83 75 73 82 88 77 69 55 47 44 34 36 46 43 40 34 29 27 25 22 21 20 20 20 21 23 26 23 22 21 22 25 21 24 24 27 38
36 33 35 45 44 77 66 75 83 86 90 90 81 90 82 76 64 54 50 44 40 48 54 46 41 36 30 26 25 24 22 20 21 22 23 25 24 21 22 22 21 23 23 25 27 33 49
33 31 35 45 55 53 75 74 71 85 91 90 92 88 80 65 64 58 50 44 56 56 58 51 43 36 33 33 29 26 24 23 24 26 25 24 21 21 21 21 21 23 26 26 33 47 62
32 32 40 47 56 64 70 66 70 87 84 92 91 76 72 62 56 56 52 47 59 62 47 42 40 37 33 29 29 28 28 28 28 26 30 30 26 22 19 20 20 24 34 60 57 54 47
41 43 50 53 63 65 77 71 82 97 83 92 91 79 65 57 62 53 52 59 65 49 48 42 37 35 33 32 32 31 31 32 30 30 34 38 33 25 21 22 26 31 56 83 92 74 63
52 53 59 56 67 76 69 74 98 98 92 89 74 68 62 63 55 53 57 73 51 55 47 43 38 37 36 35 34 34 33 37 29 31 35 38 37 27 23 21 26 41 63 65 92 76 87
65 70 78 78 98 78 85 85 94 94 95 83 71 67 67 62 54 59 62 52 57 54 48 44 42 40 42 39 39 37 34 33 31 32 31 32 40 27 22 21 32 46 56 72 88 90 79
94 94 90 94 90 91 95 89 95 96 90 80 68 68 66 53 57 62 69 62 51 54 47 45 45 44 43 41 40 39 38 35 31 32 30 30 36 30 22 33 41 56 67 73 78 92 92
89 96 98 94 98 86 92 99 97 88 78 70 71 78 65 57 62 72 67 52 56 49 47 47 47 45 44 42 41 40 38 31 30 28 31 33 39 41 26 31 39 53 61 73 97 88 83
97 97 97 97 96 98 97 98 90 79 72 73 82 78 74 56 69 71 52 56 49 50 50 50 50 46 43 42 42 37 36 34 29 29 31 32 38 43 27 32 34 53 65 76 97 97 96
98 98 97 98 97 98 97 91 81 74 80 80 72 86 78 63 71 60 64 54 50 51 54 52 48 48 45 41 38 41 39 33 30 29 29 30 35 33 41 35 49 61 65 78 92 97 91
98 97 97 97 98 97 92 79 75 77 84 78 79 78 70 60 70 71 62 49 54 56 58 53 52 49 46 45 42 40 35 32 28 26 25 23 30 35 30 37 53 62 72 85 94 98 97
97 97 96 96 97 96 94 86 81 79 77 74 73 81 77 75 68 61 58 62 60 59 57 60 58 52 46 44 37 36 33 30 25 21 21 21 24 32 32 44 58 67 85 86 85 95 87
97 97 97 96 94 90 87 75 68 83 86 77 74 69 70 72 65 61 65 61 61 62 62 59 52 48 46 42 35 31 26 24 21 22 23 27 39 43 46 51 63 88 86 84 80 90 96
96 96 97 96 96 90 72 67 64 75 74 71 72 72 72 73 58 58 68 66 65 66 62 53 54 54 47 38 31 24 20 18 23 34 34 41 52 64 63 70 76 77 79 75 78 92 98
97 96 96 94 94 94 88 76 82 82 78 75 70 68 70 80 71 68 69 70 72 67 59 65 57 49 42 31 30 28 33 34 46 44 46 51 62 73 78 79 69 79 86 78 79 83 93
98 97 97 94 85 81 78 70 74 78 74 70 66 67 67 74 77 78 75 61 58 62 69 64 55 44 35 37 35 37 41 38 44 48 51 57 62 75 79 83 81 74 78 70 76 81 80
98 97 98 98 91 89 86 76 68 73 70 67 64 69 68 72 78 72 72 70 69 71 68 62 53 42 39 45 42 44 46 43 53 50 58 63 68 73 83 81 74 74 72 66 80 71 78
98 98 98 98 95 93 90 79 67 72 72 75 71 73 68 65 72 71 71 72 64 57 57 51 48 46 45 45 48 51 51 52 53 54 57 61 69 76 79 80 69 68 58 69 73 78 79
99 98 97 92 93 93 91 81 72 73 76 70 71 74 72 68 76 78 75 70 60 53 46 49 46 43 43 46 48 51 56 55 56 61 58 64 62 67 68 71 69 68 67 66 71 75 78

GFSGBSN_prec_cthk_132.txt.gz
RH
86 91 89 90 89 88 87 84 83 80 77 75 71 65 59 52 50 49 44 38 37 33 30 30 30 27 25 26 26 25 23 21 20 20 17 15 14 14 14 14 13 12 11 10 9 9 8
85 81 83 85 88 90 93 89 90 90 86 84 78 72 68 63 57 54 54 46 43 38 36 34 35 32 29 30 31 30 26 22 19 16 14 13 14 13 12 13 13 13 13 11 10 9 8
82 87 82 79 80 81 87 90 91 88 90 86 84 75 72 65 61 60 56 53 46 43 38 36 36 35 33 33 37 33 30 26 23 18 16 15 15 15 14 14 15 15 14 11 10 10 10
58 65 77 79 78 78 81 81 88 88 84 86 84 76 60 56 56 62 62 57 51 47 42 38 42 44 41 43 41 37 32 28 24 22 19 18 16 16 17 15 14 14 15 17 13 13 12
41 57 60 72 77 73 74 77 84 85 81 79 72 66 60 56 56 60 63 60 53 46 45 45 45 46 50 56 50 42 35 30 25 23 21 19 21 18 16 16 17 19 22 19 17 15 15
30 37 39 50 60 76 70 71 76 81 75 86 72 62 60 54 58 68 67 67 54 44 45 44 50 57 51 47 42 35 31 29 26 23 20 19 19 20 20 20 23 23 23 21 20 16 13
32 32 33 41 36 55 79 94 77 77 74 76 73 68 66 55 65 71 71 73 61 48 49 49 52 47 46 43 38 35 31 30 29 29 26 23 22 23 22 22 23 23 22 21 16 14 18
36 36 34 35 40 44 60 78 85 76 75 77 84 71 67 62 62 72 79 71 65 58 46 49 46 45 43 39 35 32 27 25 23 22 21 23 26 24 23 22 21 20 21 20 17 17 19
34 38 37 36 38 41 43 65 67 85 75 75 87 79 74 67 55 69 79 73 62 43 38 43 43 46 42 39 35 31 29 28 26 24 23 24 27 25 24 22 22 21 22 22 22 16 18
33 36 39 39 39 40 42 43 61 82 80 89 83 82 91 68 63 71 74 68 57 52 41 36 44 41 40 39 35 32 30 26 25 25 26 27 27 25 22 23 23 24 20 22 20 25 29
30 32 36 39 41 40 43 46 54 70 79 92 81 82 87 81 67 67 73 64 53 36 39 37 36 38 37 37 36 34 31 28 28 26 24 28 25 24 25 23 23 22 20 20 21 28 36
28 31 34 38 36 41 43 49 54 52 62 86 82 92 94 97 73 67 72 54 43 45 42 42 36 37 41 41 39 38 36 30 29 29 28 27 26 26 25 23 21 20 22 22 28 35 41
26 20 24 32 34 36 43 46 51 53 56 72 82 93 85 93 84 83 69 50 53 51 38 37 40 41 41 40 38 34 35 35 33 31 32 32 30 28 26 24 25 25 32 42 37 37 35
26 14 17 26 30 35 41 48 56 61 51 82 97 90 79 86 80 75 60 61 63 48 48 41 41 42 41 40 40 37 36 37 36 34 38 37 37 29 25 23 25 36 44 55 67 53 45
21 12 18 29 32 37 43 54 61 61 54 71 99 92 71 68 76 64 62 59 52 48 40 44 45 43 42 43 40 39 40 43 35 35 39 42 37 28 24 22 27 32 47 47 63 58 72
18 17 24 38 48 55 58 59 64 59 54 79 98 97 89 87 83 73 76 60 53 48 45 46 47 44 47 46 43 43 43 39 38 38 36 38 39 29 23 25 33 40 39 56 69 78 71
30 38 48 48 56 61 64 64 68 72 74 79 85 82 97 95 86 79 76 64 52 48 47 54 56 51 47 46 45 47 44 41 39 39 34 34 33 29 24 33 35 41 50 56 64 76 84
58 59 66 64 65 61 69 74 76 81 96 98 97 97 94 86 83 78 68 53 51 49 53 56 55 52 54 50 48 45 46 42 39 37 34 34 38 38 24 27 29 35 45 57 77 76 83
82 81 85 97 82 77 78 78 85 96 94 86 98 97 94 87 87 82 67 58 51 48 50 60 55 54 51 50 52 53 50 44 40 36 35 34 37 39 22 27 29 32 45 55 70 83 87
96 96 96 98 99 95 91 95 98 98 95 91 96 96 98 92 85 73 67 58 55 52 57 60 56 54 55 56 52 54 51 46 41 39 35 30 33 32 31 21 29 37 45 55 81 86 87
98 98 96 96 97 97 98 98 98 95 95 94 94 95 85 86 81 69 61 60 58 61 61 55 55 54 54 55 56 53 51 46 41 40 31 26 27 30 27 25 31 39 47 68 79 83 89
98 97 97 98 97 97 98 98 97 98 96 93 91 87 76 68 69 68 65 64 61 61 63 63 60 60 56 60 56 53 49 42 38 33 26 22 21 27 30 29 42 46 60 68 73 83 81
98 98 98 97 98 98 98 94 97 97 92 93 88 80 69 72 75 71 70 65 67 64 63 63 61 65 64 61 53 46 43 37 32 28 24 23 30 40 40 43 47 62 66 76 74 82 89
98 98 98 97 97 96 93 91 97 95 94 88 83 80 79 78 70 71 71 70 65 60 65 65 65 68 63 56 50 45 36 30 26 22 21 31 42 48 53 54 61 59 66 71 74 82 90
98 98 97 97 95 94 92 93 96 93 89 85 75 75 75 78 73 78 77 65 67 64 65 68 70 62 57 52 48 41 41 39 41 37 39 40 48 58 60 66 59 65 71 74 76 81 84
97 98 98 97 91 90 81 84 94 92 86 82 78 74 76 73 82 75 69 64 63 69 71 74 66 65 61 56 47 46 46 40 47 52 51 47 51 62 66 70 73 64 67 66 73 79 81
97 98 97 97 95 81 76 79 84 89 85 81 74 75 75 74 76 68 70 69 70 72 77 73 73 70 55 53 48 47 45 41 49 50 54 59 60 62 70 68 62 66 66 68 77 78 76
98 98 95 91 91 90 84 86 82 82 81 76 75 76 74 81 83 78 73 73 67 66 71 77 78 69 56 51 50 50 50 46 47 47 51 52 58 65 67 72 66 59 58 62 69 71 78
97 98 97 93 89 82 72 77 85 85 80 73 62 67 69 74 81 78 77 75 74 73 67 69 64 55 48 50 51 50 51 50 47 52 50 56 51 55 56 56 55 56 61 64 66 68 71

GFSGBSN_prec_cthk_138.txt.gz
RH
94 86 88 87 86 90 93 96 96 93 89 86 85 83 79 78 75 68 61 57 52 50 46 42 39 35 32 32 26 25 26 27 27 26 26 26 26 24 22 20 19 17 17 15 14 14 13
63 69 83 88 88 85 87 89 91 97 90 88 87 87 89 85 84 76 70 62 58 55 51 47 43 39 37 36 33 30 30 30 29 28 28 27 26 23 22 21 19 19 18 18 16 16 15
28 39 47 71 65 88 87 81 87 88 88 89 87 88 89 90 88 85 75 66 61 58 53 47 41 42 39 40 38 35 34 33 32 32 31 29 26 23 22 22 22 21 20 19 18 18 17
21 23 28 31 39 51 62 77 77 93 95 93 86 88 81 87 91 85 78 70 65 59 43 39 43 45 43 43 41 41 38 36 35 36 37 33 30 28 27 26 24 22 21 20 21 19 17
25 23 24 24 26 30 36 50 54 74 84 96 95 87 87 86 86 84 84 68 66 57 39 36 46 49 47 43 43 42 42 40 40 38 38 35 34 30 27 24 23 23 19 20 18 17 16
22 23 25 25 26 26 31 29 40 52 67 81 68 83 82 88 81 77 77 68 59 47 39 39 53 57 49 46 43 42 43 43 40 37 34 33 32 28 26 24 20 22 23 24 20 16 16
13 15 20 23 27 28 27 29 30 30 45 64 59 81 80 80 81 71 71 64 68 51 45 48 51 52 48 42 40 41 42 39 40 36 30 30 27 26 28 25 26 28 23 19 17 17 17
18 13 12 14 19 23 28 30 30 31 30 36 55 67 76 96 91 85 67 68 71 55 48 49 53 53 53 42 39 37 37 40 38 33 31 29 26 29 29 30 27 23 22 20 19 17 18
14 15 18 14 12 15 21 26 31 32 33 34 46 56 67 82 85 89 89 80 79 68 56 47 55 54 51 45 39 34 37 34 31 30 28 28 33 32 30 28 25 24 23 22 20 20 18
15 11 13 14 13 12 15 20 26 30 35 35 40 40 61 73 76 92 85 87 80 75 75 40 34 38 42 36 32 32 35 34 32 31 29 32 32 30 31 29 26 24 24 22 23 23 18
22 17 14 12 13 13 13 15 19 30 33 38 42 48 43 70 78 92 93 95 82 75 91 37 29 28 30 29 26 27 28 31 29 30 30 34 32 31 29 28 27 26 24 25 26 24 23
22 24 21 19 15 12 12 13 14 17 26 40 44 52 46 61 77 72 82 94 93 87 91 47 30 27 26 25 26 29 29 30 30 29 29 33 35 33 32 30 30 26 27 30 29 26 24
23 22 22 20 19 18 15 12 13 14 19 31 47 55 50 54 69 80 95 90 90 91 68 54 36 32 31 28 27 28 31 33 30 31 31 32 33 34 37 33 30 32 29 23 22 22 17
30 32 29 25 20 20 19 20 14 15 17 23 42 58 56 62 63 85 84 96 94 87 67 54 45 38 35 32 31 31 34 35 34 30 33 34 39 41 35 32 30 36 34 29 31 19 20
39 34 32 29 25 22 21 22 18 18 26 27 40 56 62 60 67 75 86 92 77 83 68 61 53 42 41 38 39 38 38 39 35 32 37 39 40 38 37 35 35 39 39 33 42 33 35
31 34 34 32 29 24 23 21 20 21 25 30 43 49 57 62 74 75 97 84 94 77 73 64 60 58 52 46 48 47 48 43 39 35 36 37 42 39 37 38 38 40 34 45 42 45 34
27 26 27 30 29 27 25 24 23 24 28 37 49 54 53 69 82 88 91 77 87 80 72 69 67 61 57 52 47 48 44 41 39 38 36 38 40 45 41 39 40 40 40 35 37 39 41
28 26 28 31 33 30 29 25 20 22 33 52 53 55 55 64 87 88 98 79 79 81 69 66 65 64 60 54 51 51 53 42 41 40 40 41 40 42 39 35 36 36 37 35 42 51 46
30 35 32 39 40 34 31 23 14 23 38 49 53 60 64 64 89 84 79 77 84 78 69 63 56 58 59 54 56 57 51 48 44 44 45 42 45 42 39 39 43 37 33 29 33 41 45
43 63 83 79 62 42 26 21 20 28 41 52 60 65 74 69 81 75 80 74 72 79 73 64 62 60 59 58 56 52 51 50 50 49 48 43 46 50 44 43 35 35 29 27 36 51 43
92 98 98 97 88 55 34 28 27 38 46 52 55 61 49 59 74 69 72 72 69 66 65 63 64 62 63 64 56 55 52 53 54 51 49 52 58 51 39 32 26 21 22 25 40 43 54
98 98 98 97 92 79 60 53 52 49 55 53 49 45 51 52 80 80 81 74 71 77 69 71 70 65 61 62 60 64 59 57 57 59 59 58 51 43 30 27 24 18 23 32 37 44 45
96 98 98 98 98 99 91 87 94 80 74 63 57 53 52 72 85 85 74 71 69 71 73 79 73 71 66 66 63 60 54 56 57 59 62 59 46 39 35 35 38 45 32 37 49 43 48
98 97 98 98 96 98 98 91 93 95 92 87 81 74 79 89 84 74 80 80 82 77 86 81 74 69 70 66 62 61 63 64 64 66 60 49 39 39 46 51 61 47 35 39 46 46 49
97 96 97 98 98 97 98 98 96 97 98 96 90 84 87 93 87 87 83 82 86 85 84 78 73 69 70 61 62 63 68 66 65 61 53 44 40 48 54 47 49 47 44 45 41 44 50
94 96 98 98 98 98 98 98 97 97 98 96 93 90 85 93 96 95 91 92 92 89 86 80 73 71 69 65 64 66 70 59 64 59 50 47 48 51 56 49 41 45 41 41 42 50 44
95 96 98 98 98 98 97 97 98 98 96 97 98 97 94 96 98 95 92 89 83 80 80 78 74 71 68 66 70 69 70 65 64 63 61 55 56 60 52 46 45 41 43 43 48 58 43
96 96 98 98 98 98 98 97 96 94 93 91 95 97 94 95 96 91 84 82 79 72 73 76 74 74 72 71 66 67 63 64 68 65 59 56 57 61 50 51 51 43 44 46 48 45 48
96 94 98 98 98 98 97 92 91 90 87 85 91 93 89 89 92 85 80 77 74 72 71 77 75 72 70 66 63 61 70 67 60 70 63 63 53 48 45 46 44 44 44 43 43 46 50

GFSGBSN_prec_cthk_141.txt.gz
RH
68 80 83 92 87 90 88 89 91 89 88 89 85 85 84 84 80 74 68 64 60 56 52 47 44 41 39 42 34 37 30 26 24 24 25 26 26 27 26 24 25 22 20 19 17 15 15
43 54 63 71 78 93 84 88 88 90 90 91 93 90 88 88 87 85 79 74 70 64 58 55 50 44 44 42 36 37 35 34 32 28 27 26 28 27 27 26 23 25 21 20 19 19 18
21 26 34 44 51 62 69 78 83 89 89 89 88 91 90 84 90 86 82 78 72 69 65 59 55 50 47 40 39 38 36 36 36 33 32 32 30 27 29 25 24 22 22 22 22 20 20
21 22 21 24 30 31 36 50 71 80 84 85 83 89 96 94 87 85 81 77 72 68 63 57 59 50 42 36 40 41 41 40 38 36 35 35 36 37 34 32 26 24 24 22 20 23 20
22 24 27 25 23 23 26 31 31 42 61 76 72 82 95 93 94 87 80 74 71 67 62 52 54 47 41 36 42 43 42 38 40 41 39 36 36 38 35 29 28 26 23 21 22 20 20
14 16 18 22 25 25 24 25 30 30 34 49 56 62 81 93 96 97 85 82 69 65 61 55 45 40 38 41 42 40 41 40 41 42 39 37 36 32 31 26 24 22 22 23 24 22 23
17 13 13 14 18 21 24 26 27 29 33 33 44 53 62 79 87 76 82 79 79 62 63 57 49 37 29 36 43 39 40 39 38 41 41 39 33 31 24 27 28 25 21 20 24 23 20
19 18 15 13 13 14 17 22 25 28 30 32 36 41 56 70 74 68 82 78 73 55 46 51 56 42 35 38 44 43 41 39 38 39 38 36 31 23 30 26 24 23 25 24 22 22 21
19 17 15 14 13 14 14 13 18 24 28 32 32 35 46 57 66 65 75 89 84 78 64 61 54 48 38 38 46 39 40 40 36 33 34 33 28 28 26 25 25 26 26 25 23 21 20
19 20 17 13 12 12 14 14 15 17 24 28 34 36 42 41 63 65 71 71 87 88 92 65 66 52 42 30 38 42 35 37 35 32 32 30 28 27 23 23 24 25 26 25 23 23 21
21 18 17 18 15 12 12 13 14 16 18 26 33 38 38 44 59 62 76 70 83 84 97 77 56 47 43 34 27 30 34 32 32 28 31 31 28 25 23 21 24 21 26 24 26 26 26
28 26 22 19 21 22 16 14 14 14 16 23 25 36 41 53 50 58 71 74 80 94 95 72 50 50 42 35 28 24 27 28 27 26 32 26 28 28 24 26 25 26 26 29 32 33 33
23 23 24 23 22 21 21 20 18 19 20 19 20 29 39 49 57 54 56 75 97 91 77 74 52 54 48 42 36 33 27 28 29 31 30 32 30 26 26 23 26 26 33 33 38 39 30
32 23 25 26 25 23 22 23 21 21 23 24 25 30 34 45 57 57 64 69 95 85 73 64 53 59 54 45 36 39 32 33 32 27 30 31 33 30 26 25 28 35 32 34 40 28 25
38 37 28 28 29 27 25 23 26 28 31 32 30 32 40 40 52 63 74 80 77 85 78 50 55 52 49 35 44 45 39 39 35 33 36 35 35 31 34 32 30 38 36 40 41 28 36
38 38 37 31 27 30 32 35 33 36 36 39 43 48 39 39 47 66 85 86 74 72 81 65 71 64 55 38 50 51 46 39 39 38 40 40 46 37 36 32 31 37 43 46 45 41 34
46 43 37 35 29 25 27 32 37 39 41 49 52 51 41 43 53 69 90 91 75 62 73 73 69 70 59 51 51 54 51 51 45 48 46 44 44 41 36 32 38 42 40 37 39 35 37
40 35 36 33 31 25 22 24 32 43 52 60 55 59 41 49 63 66 70 72 69 64 61 80 70 67 63 60 59 60 60 61 54 49 41 41 39 43 40 36 40 43 48 40 47 47 40
38 34 34 33 28 26 23 27 33 48 59 66 66 57 54 55 64 56 55 60 74 72 63 67 74 79 73 71 68 71 62 59 52 48 46 46 39 41 41 41 38 40 39 47 46 43 35
45 40 36 32 30 31 32 34 35 46 59 67 70 71 71 65 45 50 54 59 66 67 70 61 56 72 74 76 77 76 72 66 57 53 52 46 43 46 45 42 44 45 41 42 41 46 36
50 46 40 38 41 43 44 43 42 46 57 70 69 65 56 62 56 42 42 41 57 71 69 69 70 65 66 78 78 69 68 66 58 59 49 46 46 46 41 37 40 43 42 40 44 36 44
52 51 56 69 81 90 92 87 65 54 58 71 66 59 53 43 43 53 53 51 55 62 68 65 69 60 62 73 70 67 68 67 62 58 53 51 50 46 45 42 40 37 38 36 33 30 30
95 96 97 99 98 98 94 90 75 64 77 74 53 46 54 46 57 61 51 41 42 58 61 66 65 66 66 62 65 67 67 64 62 57 58 56 51 49 49 44 39 40 33 29 42 32 35
99 98 99 98 98 97 97 88 75 45 37 42 36 40 54 55 52 40 41 50 53 61 67 65 68 70 65 62 72 75 76 74 69 66 62 62 57 54 51 55 60 54 44 35 33 35 39
98 98 98 98 98 98 98 90 49 34 27 43 44 51 52 52 48 55 53 55 57 76 83 76 78 77 75 73 76 85 82 77 73 68 65 61 57 62 61 63 62 59 46 38 36 43 42
97 98 98 98 98 98 98 98 89 62 58 58 58 53 51 58 56 46 54 61 77 88 90 86 86 79 78 76 74 83 88 76 77 71 65 61 57 62 56 62 59 61 49 41 36 42 43
98 98 98 98 98 98 98 98 97 90 81 74 70 71 68 67 59 57 64 75 87 87 88 88 87 88 83 78 83 78 76 68 72 71 67 62 65 66 65 60 60 63 47 39 43 59 55
98 98 98 99 98 98 98 98 98 98 98 97 97 97 90 93 94 93 93 91 89 86 82 88 89 87 86 83 79 78 76 66 72 64 60 56 62 67 63 64 65 59 47 39 51 53 51
97 98 98 99 97 99 98 98 97 96 96 96 97 96 92 91 98 98 96 94 92 86 83 84 82 80 82 83 78 72 73 74 73 79 60 64 61 62 56 62 60 49 46 42 41 42 45

GFSGBSN_prec_cthk_144.txt.gz
RH
63 69 72 76 83 92 91 92 92 93 91 91 90 89 85 85 85 83 78 74 69 65 58 54 51 46 43 45 42 38 37 30 30 30 27 25 25 25 25 25 24 25 26 23 23 19 17
31 35 43 53 59 67 73 93 91 86 89 88 89 91 92 89 88 90 87 82 75 71 65 60 59 53 50 49 43 39 37 35 33 33 33 30 27 28 29 28 27 26 26 25 22 22 22
18 18 21 23 32 43 50 59 70 84 93 88 89 89 89 90 87 90 89 82 76 75 67 64 61 55 52 51 43 39 38 35 35 35 34 34 33 32 31 30 27 29 26 24 24 23 22
18 19 19 19 20 22 24 30 39 54 59 65 72 81 86 86 89 84 93 86 80 75 69 63 60 57 51 48 46 33 31 33 38 41 37 36 36 35 36 35 37 34 30 29 24 21 22
15 15 16 19 22 22 23 22 22 28 35 48 58 77 73 92 92 80 87 95 89 77 69 63 60 60 51 41 37 34 31 31 37 41 40 40 39 36 36 38 33 33 31 24 23 22 22
20 16 15 16 14 17 20 23 25 24 27 30 28 40 61 70 80 78 94 86 88 84 74 68 57 57 48 38 27 27 32 33 36 39 41 40 39 38 36 33 34 26 24 22 23 22 19
25 23 19 17 16 15 14 17 21 26 26 29 31 30 36 55 66 68 67 75 79 78 68 62 58 47 37 40 26 26 30 37 36 35 40 40 40 38 38 26 27 29 26 26 23 21 20
26 25 23 22 20 19 18 15 15 19 23 28 30 31 31 40 60 66 65 71 70 74 66 62 57 53 45 40 34 26 25 35 39 36 37 36 38 37 28 28 28 25 24 24 24 23 24
24 24 23 22 21 19 17 19 18 16 17 23 28 32 31 37 45 56 68 60 76 69 64 56 57 51 53 51 42 35 22 31 36 39 37 35 33 29 28 28 26 23 22 21 24 24 20
20 18 18 19 21 20 16 15 17 18 15 20 27 32 35 34 45 45 56 63 80 81 74 54 54 53 60 56 46 49 28 24 35 37 36 32 35 29 29 27 23 23 19 18 21 20 24
20 20 22 22 20 19 19 17 14 14 15 16 20 28 32 39 43 46 44 56 75 83 91 62 49 49 56 55 48 45 49 27 29 37 34 30 25 26 28 27 20 21 21 22 20 21 24
26 26 24 24 25 25 20 23 23 18 16 16 19 29 26 35 42 45 50 55 60 84 93 61 44 44 48 46 51 49 50 34 29 30 28 28 27 25 28 24 23 23 21 19 22 28 33
27 27 26 25 25 25 26 24 25 25 21 21 20 24 25 28 35 46 57 68 74 81 79 68 46 36 45 49 55 46 46 33 29 33 30 27 27 27 26 27 27 25 22 26 33 40 40
30 32 33 29 25 22 22 26 26 26 26 23 29 27 25 25 30 42 62 77 82 56 63 64 62 42 42 46 51 49 44 40 34 34 38 35 30 27 25 27 24 26 24 36 40 38 37
43 43 41 40 39 29 24 30 33 35 36 32 35 36 37 33 32 40 56 81 81 50 47 59 69 58 43 47 44 49 45 46 40 37 43 39 35 30 28 29 28 30 33 31 41 36 32
42 43 45 46 42 41 40 32 34 38 37 39 44 47 47 38 40 45 58 69 75 52 43 57 72 53 54 59 50 52 52 48 46 45 46 44 48 35 35 33 32 34 39 42 36 38 38
43 40 40 48 48 53 46 42 36 39 48 51 59 63 46 45 52 60 73 58 57 53 62 68 64 57 59 60 54 47 46 46 47 50 51 47 53 48 42 42 40 37 40 38 42 50 48
42 44 42 43 44 46 45 43 39 37 44 66 69 77 59 59 65 60 63 43 40 43 59 72 67 60 73 68 61 55 49 54 53 54 49 50 60 59 49 48 39 37 37 36 49 41 42
47 49 45 42 43 35 34 37 42 37 40 59 81 77 74 71 73 62 52 48 43 48 56 73 74 58 55 61 73 73 54 57 59 55 55 57 63 62 56 46 41 40 41 44 47 50 56
56 55 47 45 43 38 34 33 40 41 37 55 86 92 91 76 52 48 42 44 43 40 46 60 75 69 62 60 74 76 66 65 69 66 64 65 62 62 59 51 45 45 39 42 49 57 50
40 44 51 51 54 49 44 40 41 35 40 63 84 94 86 82 66 45 40 33 47 44 46 51 72 67 66 72 65 69 65 74 73 69 72 68 67 61 54 51 52 48 43 42 50 50 56
53 72 75 72 70 59 46 42 41 43 56 78 79 86 86 90 70 60 44 45 40 42 47 47 55 57 63 65 53 51 56 66 75 77 75 66 66 58 57 48 41 40 45 47 48 46 47
56 60 59 57 56 54 51 46 48 59 64 71 67 67 75 62 67 60 46 39 34 37 40 41 48 64 70 57 62 66 68 73 70 76 78 73 69 60 54 47 45 48 45 46 60 45 38
47 67 90 95 97 96 89 84 78 73 71 62 62 52 69 76 59 56 40 33 35 38 41 52 55 59 59 71 75 80 78 72 80 79 74 75 65 55 56 59 59 48 51 47 43 37 32
97 98 96 98 98 98 97 94 95 98 98 92 71 56 48 55 65 57 42 41 39 43 50 57 63 46 70 79 86 83 84 81 78 75 68 64 62 67 69 69 63 68 61 54 45 41 42
98 98 98 96 94 92 91 96 98 98 98 99 96 84 56 53 44 43 58 54 51 48 62 71 76 76 70 80 84 86 85 72 76 71 68 70 67 68 74 76 86 64 64 57 47 53 57
98 96 96 97 95 94 97 98 99 94 98 98 91 88 72 58 51 51 53 45 45 55 73 88 93 87 77 81 90 95 88 77 77 67 67 67 71 75 77 77 69 73 70 57 49 62 53
98 97 98 96 93 94 99 99 92 69 69 74 73 74 61 62 62 61 66 60 53 73 80 83 83 88 92 97 95 87 80 70 74 71 67 71 79 78 76 81 74 75 66 61 62 60 54
98 98 97 95 95 95 98 97 89 61 60 61 70 72 75 90 89 75 82 71 71 80 65 61 64 77 87 88 85 83 83 81 81 82 72 78 74 76 70 73 77 75 72 67 61 55 46

GFSGBSN_prec_cthk_150.txt.gz
RH
65 68 72 80 81 84 85 86 83 83 83 83 83 82 83 83 81 79 78 76 73 70 68 67 63 59 56 52 52 47 44 41 38 36 37 33 31 30 31 29 26 24 23 25 27 27 27
51 49 48 49 52 55 60 66 72 75 72 76 77 75 79 82 81 81 81 79 77 74 75 72 69 64 58 55 53 48 47 48 42 37 38 36 31 31 30 30 29 26 23 24 25 26 28
40 40 39 40 36 36 37 37 41 45 53 56 64 67 67 69 78 84 78 78 76 77 82 75 72 67 56 60 57 52 48 47 43 38 39 35 31 31 29 32 32 33 32 28 27 28 26
31 26 22 21 21 23 23 21 22 24 25 29 39 44 53 58 63 66 69 76 73 72 74 74 74 69 59 60 56 51 47 47 37 38 31 29 31 33 33 32 33 33 34 34 36 31 27
26 18 17 17 16 16 16 19 21 23 22 24 23 24 26 39 47 54 56 58 63 63 69 73 70 64 61 57 49 46 48 34 31 30 29 30 30 32 33 34 35 38 38 36 29 27 26
24 21 17 14 13 14 14 14 18 19 19 20 23 23 22 22 23 30 38 42 53 60 66 68 70 61 64 53 49 42 42 38 27 22 30 33 32 35 37 37 41 38 33 29 27 25 23
24 23 22 18 15 14 13 15 16 13 12 14 19 22 23 26 25 28 33 37 43 43 48 46 55 63 56 59 51 41 41 33 33 22 22 34 35 37 39 37 38 34 31 30 24 21 21
28 27 27 25 24 24 23 20 17 14 14 13 13 17 23 26 29 33 38 38 42 42 45 39 45 46 47 54 57 43 36 36 29 31 27 23 31 38 36 34 33 35 34 29 24 20 19
40 32 26 25 25 25 24 23 21 18 16 15 15 16 17 23 29 34 40 46 46 50 48 39 28 36 39 38 46 54 50 39 36 31 31 29 27 30 37 34 33 36 34 30 27 22 19
50 43 34 34 30 30 32 31 28 27 27 22 22 22 21 24 30 33 39 42 47 51 56 39 33 27 28 31 29 30 53 46 37 37 38 30 30 27 29 34 33 32 30 31 30 29 27
54 54 49 45 40 35 36 37 34 32 30 26 24 23 26 25 32 32 36 42 49 51 65 26 30 32 35 36 31 30 33 43 33 39 45 35 33 33 27 28 31 31 31 30 28 31 28
49 47 52 54 47 42 39 34 31 33 28 27 21 17 20 19 23 28 32 43 51 62 59 31 36 43 48 43 39 35 41 45 44 43 44 41 43 36 33 26 27 29 28 29 29 30 29
55 54 55 50 50 43 39 38 36 32 29 26 28 29 28 24 21 28 40 46 66 69 33 25 34 34 43 45 43 42 47 51 49 43 35 39 39 41 40 36 31 26 26 32 35 35 27
57 55 56 55 55 55 52 52 47 42 40 34 33 29 26 34 30 27 39 50 63 38 36 25 33 35 37 41 51 48 48 46 47 43 44 44 43 42 38 37 36 33 33 45 42 43 38
52 48 44 40 40 45 42 33 35 34 32 32 37 36 30 28 33 37 47 65 49 33 28 27 29 43 52 39 41 50 47 47 41 41 43 50 45 45 45 39 36 38 37 39 46 46 48
48 51 47 40 35 33 34 37 38 38 37 36 43 40 31 33 41 50 60 61 43 26 25 35 46 43 43 55 53 50 55 49 49 41 44 49 48 41 43 45 42 42 39 47 49 48 47
57 59 55 53 48 38 38 36 38 43 45 50 50 53 35 40 52 68 70 56 39 25 30 39 36 44 43 47 56 64 62 56 52 55 53 55 57 45 40 42 45 46 48 48 51 54 56
85 84 81 73 62 56 47 38 41 41 48 67 61 59 45 49 67 73 74 55 34 26 26 34 37 41 47 42 53 56 55 54 57 57 58 57 65 58 44 45 48 50 50 54 65 56 61
58 68 73 71 70 61 58 54 44 47 56 69 71 62 52 63 75 71 66 59 49 37 33 31 33 36 35 41 68 75 71 61 56 55 53 51 67 68 64 60 56 53 51 52 57 63 63
60 59 60 59 57 54 55 53 52 57 66 83 85 80 63 79 68 69 71 71 60 41 37 39 39 31 38 47 51 64 64 78 74 65 62 60 71 70 66 65 66 64 62 60 64 71 62
59 58 57 53 52 50 50 53 55 54 66 86 87 83 58 65 89 72 73 75 67 62 46 44 48 46 44 46 47 60 69 76 76 78 71 67 69 68 68 69 73 72 70 67 69 62 68
44 45 44 44 48 47 45 51 57 60 64 86 79 76 64 63 64 94 77 79 69 61 54 46 45 30 36 44 42 49 64 83 76 75 76 79 75 73 70 71 76 81 74 77 69 64 62
46 42 44 52 54 57 65 63 63 68 78 84 81 71 84 67 57 88 74 70 56 49 47 46 46 43 50 30 36 47 64 69 78 81 81 81 83 83 82 82 89 95 65 73 73 65 72
48 40 39 43 47 56 57 67 70 68 76 78 78 80 86 72 71 66 88 97 83 62 59 55 55 49 21 32 37 44 63 76 86 79 71 72 78 86 88 86 93 53 51 61 66 62 62
40 43 39 43 46 50 53 64 69 83 86 88 84 85 85 78 66 61 61 85 97 84 75 62 45 37 40 44 62 64 62 64 69 73 72 75 80 90 90 90 68 56 49 49 59 63 64
63 74 78 73 60 48 43 55 61 69 77 86 88 90 95 86 60 51 57 63 90 78 75 57 54 48 62 69 76 91 80 65 83 81 71 77 83 92 97 96 90 60 58 58 60 74 65
95 97 97 97 97 97 91 75 64 59 66 82 83 84 92 83 57 60 55 53 48 72 92 69 63 66 65 86 94 87 86 72 82 79 84 93 98 94 97 95 70 58 58 63 71 72 73
97 98 98 99 98 98 98 98 99 95 83 79 71 76 78 76 62 62 55 64 78 80 87 75 77 66 78 87 97 91 88 85 82 74 76 77 86 88 94 90 77 62 62 66 74 79 78
98 98 98 98 97 96 95 95 94 95 98 99 96 89 77 76 65 68 61 56 64 80 82 75 65 55 58 80 92 96 90 74 65 69 56 62 68 78 79 79 74 70 76 80 80 81 84

GFSGBSN_prec_cthk_153.txt.gz
RH
70 73 75 77 79 79 78 81 80 77 82 81 82 81 82 83 84 81 78 73 72 70 68 64 62 60 59 55 54 49 45 43 41 36 34 33 31 30 31 31 28 28 26 26 27 27 25
66 65 62 64 63 62 65 66 70 74 78 78 80 76 76 79 82 80 78 75 74 72 72 68 66 64 62 57 57 51 49 49 45 42 38 37 34 33 32 31 29 28 27 26 26 27 25
55 53 51 50 50 50 49 49 49 52 53 58 60 63 63 69 74 72 70 67 71 76 71 71 70 69 62 59 59 55 56 52 49 44 39 35 34 35 31 29 27 27 28 28 28 29 30
50 47 48 48 45 42 41 42 41 39 36 37 38 40 43 48 55 60 64 70 66 64 69 69 67 65 58 56 59 55 52 53 49 46 40 36 35 33 28 27 28 31 32 33 33 34 32
51 50 47 42 37 35 32 30 27 28 27 29 27 24 23 25 33 38 40 48 56 60 59 62 58 59 53 51 49 53 47 48 45 40 32 34 33 27 27 29 32 34 36 36 38 34 34
54 48 44 40 35 28 24 22 17 16 16 17 19 20 21 22 22 22 22 27 29 34 37 46 54 57 50 47 45 49 45 42 43 39 26 30 30 28 30 32 37 40 36 36 36 30 28
50 44 45 41 33 28 23 20 15 12 11 11 13 16 19 23 22 24 25 29 28 29 29 28 34 39 42 44 44 46 47 43 38 34 33 26 27 32 37 36 37 38 37 35 34 29 26
47 45 41 38 34 31 27 21 17 13 11 11 11 13 15 18 23 27 31 32 34 35 32 28 30 31 27 34 44 46 44 47 39 35 30 33 30 29 37 34 34 34 36 38 36 30 28
36 42 51 50 41 35 33 29 24 19 15 12 11 14 16 18 20 24 30 33 39 40 45 35 24 24 20 23 33 34 40 36 43 40 35 30 30 35 29 32 36 36 34 36 34 30 26
49 43 38 40 46 48 47 40 30 30 27 19 17 16 16 15 19 21 27 32 40 42 44 35 30 26 27 24 29 26 34 42 31 39 44 37 33 32 36 32 31 33 35 35 36 35 30
62 63 54 48 45 46 49 47 44 46 38 32 27 23 22 21 25 27 31 36 43 43 54 27 31 31 34 36 31 32 25 36 34 29 35 37 36 36 34 36 37 30 31 34 35 34 31
63 69 78 73 60 52 50 57 55 53 49 41 35 31 30 28 28 30 38 42 48 55 60 31 41 42 44 43 37 37 39 39 36 36 31 34 35 37 38 36 38 38 33 34 35 34 33
54 56 57 66 69 69 58 55 56 58 50 50 44 35 37 33 28 29 38 40 52 59 30 28 30 45 48 46 44 44 43 43 41 42 38 36 34 40 40 38 39 39 42 42 35 36 31
45 45 50 55 63 66 69 62 56 52 56 50 47 48 47 44 40 39 52 71 67 36 31 29 34 42 48 51 45 40 41 44 46 45 47 51 48 42 36 36 37 41 43 53 54 50 39
48 54 54 52 53 56 60 60 63 58 57 59 58 54 49 44 49 39 53 66 58 43 37 34 28 35 36 42 46 55 61 51 45 40 47 49 44 40 38 42 44 41 42 45 54 54 55
68 59 59 57 51 48 48 56 56 57 53 53 55 58 58 58 57 60 65 56 44 33 31 39 44 35 33 20 32 45 48 44 49 50 51 48 50 38 36 42 45 45 47 54 55 53 50
77 73 66 65 66 59 50 43 53 47 53 55 50 54 46 43 53 66 69 53 42 30 29 35 36 39 39 40 36 40 47 45 44 52 59 60 66 53 46 45 46 48 53 52 54 58 61
81 73 73 70 76 67 62 50 49 53 60 64 55 51 45 46 62 63 57 42 33 28 29 31 34 39 40 37 43 39 42 51 56 70 70 61 75 73 57 52 52 47 50 51 65 58 65
87 79 70 83 95 89 80 66 53 52 64 64 66 58 56 59 69 60 53 49 42 34 35 37 40 36 36 42 48 43 40 41 50 47 52 59 84 94 78 72 63 56 53 54 60 63 63
94 83 77 77 94 97 95 92 80 72 63 76 75 73 67 76 75 64 58 53 54 42 44 48 38 35 34 34 36 41 39 38 45 62 71 65 64 62 66 55 55 56 58 57 67 78 61
90 85 79 79 81 88 91 84 77 76 80 87 91 78 64 74 64 72 65 58 61 58 47 44 53 44 40 44 31 29 31 30 36 57 79 83 87 76 62 58 57 62 68 74 83 71 83
82 79 73 71 70 69 70 73 72 78 82 94 92 84 79 81 70 69 82 81 64 58 56 50 56 42 47 53 39 40 39 38 37 47 59 77 93 93 84 74 74 76 77 75 76 69 76
80 65 58 55 57 58 59 59 62 69 81 87 80 74 77 68 71 78 62 79 67 65 57 48 52 54 60 35 44 46 54 54 58 64 78 98 98 95 92 83 91 97 64 74 75 76 76
75 74 63 50 42 45 51 56 60 63 71 82 79 79 81 66 74 62 58 62 77 83 82 65 74 74 41 52 58 54 56 62 59 62 76 91 98 98 96 92 96 62 58 62 70 64 65
84 69 62 51 42 39 43 51 60 69 78 88 84 83 81 78 72 67 72 70 63 71 94 85 66 67 78 73 78 68 58 60 47 49 60 73 92 98 97 89 73 58 51 56 66 58 64
61 49 45 53 60 55 45 44 55 62 72 86 80 79 89 87 71 70 67 59 61 75 91 93 88 82 86 92 90 82 71 61 60 55 48 65 79 92 95 96 87 54 55 62 64 61 62
43 49 57 63 71 71 62 49 48 52 65 79 84 84 89 84 72 73 61 55 69 84 86 85 94 86 85 91 82 84 72 64 86 70 65 65 78 85 94 93 76 57 65 66 72 68 72
73 91 95 97 97 98 98 97 83 50 53 76 76 86 91 89 77 72 68 62 61 70 76 76 88 92 86 87 76 74 87 68 77 73 70 72 86 89 96 96 82 67 67 69 71 73 75
93 94 98 98 98 98 99 99 98 96 75 77 83 86 92 95 83 86 74 65 59 53 75 80 65 72 78 86 80 85 87 96 80 78 68 81 75 81 87 79 69 71 70 73 75 78 81

GFSGBSN_prec_cthk_156.txt.gz
RH
80 85 81 78 73 73 74 70 69 72 73 72 70 72 73 75 74 74 75 72 72 71 71 67 65 64 61 58 57 54 49 46 43 42 38 36 34 32 31 31 29 28 26 25 25 24 24
67 65 66 66 68 76 75 72 76 75 77 74 74 74 76 77 75 75 73 74 72 72 70 68 66 65 64 60 60 56 54 53 48 45 43 40 37 34 32 33 32 30 29 28 27 26 25
60 57 58 61 63 63 64 64 62 61 61 62 62 60 60 61 66 64 64 66 68 69 67 63 62 65 64 63 63 61 57 54 51 48 47 42 39 37 34 32 33 31 28 26 24 25 25
59 63 64 60 56 54 53 51 50 49 49 47 46 48 48 45 45 46 50 49 58 56 61 65 59 58 57 56 58 57 53 56 52 46 47 44 40 38 35 34 34 31 26 26 27 27 27
67 64 53 52 50 50 50 49 49 47 44 41 41 42 41 39 36 35 36 32 36 43 46 53 51 50 50 48 56 55 49 46 53 46 41 38 35 34 32 33 31 30 29 32 33 32 29
62 63 64 66 60 53 48 47 46 42 39 37 34 31 30 30 29 29 27 22 21 20 28 28 31 38 35 41 49 49 48 47 48 43 37 34 32 25 31 32 31 32 35 34 34 34 31
56 55 54 55 55 57 49 41 42 37 34 30 25 24 22 20 19 22 22 23 22 23 26 21 24 28 30 31 36 42 44 43 46 43 39 37 34 25 30 33 28 27 31 36 39 38 34
51 50 49 51 53 55 48 49 40 36 32 28 23 21 19 14 15 17 21 22 26 31 31 23 25 25 17 19 29 34 39 40 42 44 43 39 35 32 28 26 32 31 33 38 38 38 33
52 44 41 42 43 45 50 47 43 41 34 28 24 21 19 14 11 15 19 23 29 34 38 29 21 21 17 21 23 21 36 30 33 41 42 40 38 36 31 32 28 30 33 38 35 36 32
50 51 50 47 47 45 49 52 54 44 38 33 28 24 21 18 17 15 18 22 27 34 39 30 27 27 27 29 31 23 20 29 27 27 33 32 34 39 35 35 33 33 32 30 33 33 32
61 62 56 56 55 51 48 47 45 47 63 43 38 28 25 22 23 21 23 24 31 40 32 25 30 31 34 31 34 34 28 29 38 32 31 30 27 31 40 39 42 38 39 36 31 30 31
64 74 81 69 63 62 55 48 42 41 45 52 45 43 45 42 32 35 38 39 47 49 40 26 38 43 43 41 39 38 40 39 40 46 37 35 34 30 27 32 37 38 41 41 37 34 33
48 48 49 61 70 72 78 77 73 59 52 50 49 52 43 46 42 40 49 59 61 57 30 30 34 49 48 48 47 44 43 47 47 48 51 44 36 36 36 38 33 32 37 44 44 44 38
49 46 47 44 43 47 57 65 72 74 72 70 63 59 67 53 51 46 53 68 72 43 37 40 40 42 44 54 54 53 51 51 52 45 49 55 53 40 35 40 48 49 45 54 55 52 46
69 59 53 47 43 44 50 57 57 60 66 72 71 56 52 56 60 55 68 78 59 43 40 38 29 38 41 42 44 47 49 49 47 47 51 50 48 44 44 49 54 55 53 45 56 54 56
92 87 81 71 55 53 56 57 58 58 61 64 62 72 60 52 52 61 74 68 54 45 47 51 49 42 41 35 39 45 45 43 46 44 53 55 61 51 49 48 45 48 51 55 59 58 56
84 91 86 79 78 76 70 64 60 60 61 61 63 62 56 67 66 86 81 74 55 51 49 52 48 51 49 52 47 38 37 34 40 42 47 49 62 54 52 51 47 45 47 48 52 61 55
72 86 79 77 74 76 81 79 69 60 61 68 65 64 53 60 75 73 70 52 46 44 48 52 50 49 46 40 46 44 46 44 45 60 59 65 76 70 62 61 57 57 58 57 64 66 68
92 98 91 88 83 71 68 88 91 79 76 71 70 64 58 62 71 64 51 49 47 45 40 41 41 41 39 44 44 36 29 20 27 38 53 57 77 95 88 78 70 65 65 63 61 63 63
93 97 97 84 80 71 76 86 91 90 91 84 82 75 69 71 66 59 49 46 51 40 42 39 37 37 41 43 40 42 34 28 30 34 40 59 82 74 66 65 64 67 58 58 68 77 59
89 98 97 91 85 84 76 98 99 98 95 96 98 83 66 72 72 67 64 51 52 48 40 40 40 37 41 52 46 36 30 30 25 24 29 50 69 70 75 71 65 58 56 60 73 59 67
95 96 92 88 89 91 81 86 99 99 98 98 97 92 83 81 63 73 84 73 54 44 47 44 52 35 48 53 39 48 64 59 51 45 44 46 56 62 78 73 76 84 79 68 65 62 65
95 96 93 88 90 90 84 89 98 98 98 98 93 95 96 90 81 86 67 66 78 69 59 53 55 61 67 43 59 60 57 49 53 66 68 67 66 65 62 68 85 95 68 79 79 75 72
89 92 93 87 80 77 77 76 83 94 96 98 92 93 98 84 89 77 75 72 68 65 79 76 81 84 56 67 70 73 69 65 66 52 53 67 68 72 74 82 97 74 65 69 73 65 67
92 87 86 83 75 66 63 63 69 73 80 88 86 89 87 84 80 75 72 76 75 62 64 73 81 86 83 74 84 90 82 79 53 50 53 56 65 74 84 86 89 82 71 66 69 56 56
90 89 90 88 73 67 58 49 48 52 66 81 82 83 87 88 74 76 74 70 72 70 70 60 75 80 96 92 95 95 95 76 70 57 46 48 53 64 75 92 96 75 61 65 64 59 64
77 73 68 66 62 55 53 56 55 47 52 66 79 87 92 90 78 77 75 71 77 75 73 65 68 79 86 94 98 88 88 72 75 72 68 70 68 70 68 82 80 66 65 65 70 71 63
54 51 49 49 52 56 61 63 64 63 58 60 70 79 89 87 80 70 71 73 70 70 71 61 74 81 81 96 97 97 91 74 74 67 65 71 81 74 73 80 77 62 70 75 73 74 70
46 56 72 89 94 96 97 97 98 98 91 70 68 76 84 86 75 81 73 72 73 72 74 73 66 76 79 98 84 77 84 81 78 83 69 77 70 73 75 78 75 77 76 72 68 73 76